EW7117 Weather Reports


Display with metric or nautical units.
time (UTC)temp
F
wind
direction
speed
MPH
gust
MPH
rain 1hr
in
rain 24hr
in
rain mn
in
humidity
%
barometer
mb
20260506231554 46 240 0.0 5.0 0.00 0.67 0.48 84 1008.7
20260506230051 46 248 0.0 3.0 0.00 0.67 0.48 83 1008.5
20260506224551 47 239 0.0 0.0 0.00 0.67 0.48 81 1008.3
20260506223057 47 229 0.0 0.0 0.00 0.67 0.48 81 1008.5
20260506221553 47 225 0.0 0.0 0.00 0.67 0.48 80 1008.3
20260506220050 47 153 0.0 0.0 0.00 0.67 0.48 78 1008.5
20260506214549 47 121 0.0 0.0 0.00 0.67 0.48 78 1008.3
20260506213048 47 121 0.0 0.0 0.00 0.67 0.48 78 1008.2
20260506211546 47 89 0.0 0.0 0.00 0.67 0.48 78 1008.2
20260506210046 47 85 0.0 0.0 0.00 0.67 0.48 79 1008.4
20260506204554 47 55 0.0 0.0 0.00 0.67 0.48 81 1008.4
20260506203045 46 59 0.0 0.0 0.00 0.67 0.48 82 1008.2
20260506201544 46 59 0.0 0.0 0.00 0.67 0.48 82 1008.3
20260506194549 45 34 0.0 0.0 0.00 0.67 0.48 83 1008.2
20260506193042 45 44 0.0 0.0 0.00 0.67 0.48 83 1008.6
20260506191541 45 44 0.0 0.0 0.00 0.67 0.48 83 1008.3
20260506190041 45 67 0.0 0.0 0.00 0.67 0.48 84 1008.2
20260506184541 44 74 0.0 0.0 0.00 0.67 0.48 85 1008.4
20260506183052 45 71 0.0 0.0 0.00 0.67 0.48 86 1008.3
20260506181540 44 62 0.0 0.0 0.00 0.67 0.48 86 1008.5
20260506180038 44 38 0.0 0.0 0.00 0.67 0.48 87 1008.4
20260506174536 44 68 0.0 0.0 0.00 0.67 0.48 87 1008.3
20260506173036 44 75 0.0 0.0 0.00 0.67 0.48 87 1008.2
20260506171542 43 73 0.0 8.0 0.00 0.67 0.48 87 1008.2
20260506170040 43 86 0.0 5.0 0.01 0.67 0.48 87 1008.3
20260506164544 43 63 0.0 8.0 0.01 0.67 0.48 88 1008.5
20260506163033 43 59 3.0 8.0 0.02 0.67 0.48 89 1008.7
20260506161538 43 36 0.0 0.0 0.01 0.66 0.47 90 1009.0
20260506160041 42 24 0.0 0.0 0.01 0.66 0.47 90 1009.2
20260506154530 42 36 0.0 0.0 0.01 0.66 0.47 90 1009.0
20260506153024 42 58 0.0 0.0 0.01 0.65 0.46 90 1008.9
20260506151532 43 20 0.0 7.0 0.02 0.65 0.46 90 1008.8
20260506150029 42 70 0.0 5.0 0.03 0.65 0.46 90 1008.7
20260506144511 42 44 0.0 0.0 0.05 0.65 0.46 91 1008.8
20260506143032 42 78 0.0 0.0 0.05 0.64 0.45 91 1008.9
20260506141508 42 78 0.0 0.0 0.05 0.63 0.44 90 1008.9
20260506140007 42 65 0.0 0.0 0.05 0.63 0.43 90 1008.9
20260506134503 42 68 0.0 0.0 0.04 0.61 0.41 90 1008.9
20260506133004 42 74 0.0 0.0 0.04 0.60 0.40 89 1008.7
20260506131502 42 74 0.0 0.0 0.04 0.59 0.39 90 1008.7
20260506130001 42 93 0.0 1.0 0.04 0.57 0.38 90 1008.7
20260506124559 42 73 0.0 0.0 0.03 0.56 0.37 91 1008.8
20260506123057 42 71 0.0 0.0 0.03 0.56 0.36 91 1008.9
20260506121526 42 42 0.0 0.0 0.03 0.55 0.35 91 1008.9
20260506120024 42 265 0.0 0.0 0.03 0.54 0.34 91 1008.8
20260506114528 42 265 0.0 0.0 0.05 0.54 0.34 91 1009.0
20260506113020 42 265 0.0 0.0 0.06 0.53 0.33 91 1009.2
20260506111517 42 265 0.0 0.0 0.07 0.52 0.32 91 1009.3
20260506110015 42 265 0.0 0.0 0.06 0.56 0.30 91 1009.3
20260506104513 42 265 0.0 0.0 0.07 0.56 0.28 91 1008.9
20260506103015 42 265 0.0 0.0 0.07 0.54 0.27 91 1009.1
20260506101513 42 265 0.0 0.0 0.07 0.52 0.25 91 1008.7
20260506100008 42 265 0.0 0.0 0.08 0.53 0.24 91 1008.9
20260506094514 43 265 0.0 0.0 0.08 0.51 0.22 91 1008.4
20260506093007 43 265 0.0 0.0 0.07 0.49 0.20 91 1008.5
20260506091504 43 265 0.0 0.0 0.06 0.47 0.18 91 1008.7
20260506090006 43 263 0.0 0.0 0.04 0.45 0.16 90 1009.1
20260506084505 43 262 0.0 0.0 0.02 0.43 0.14 90 1009.2
20260506083000 43 259 0.0 0.0 0.02 0.42 0.13 89 1009.0
20260506081554 44 257 0.0 0.0 0.02 0.41 0.12 89 1009.1
20260506073052 44 188 0.0 7.0 0.08 0.40 0.11 88 1008.4
20260506071605 44 182 2.0 12.0 0.08 0.39 0.10 89 1008.5
20260506061540 45 192 4.0 14.0 0.02 0.31 0.02 89 1008.7
20260506044531 46 205 0.0 0.0 0.01 0.28 0.00 89 1008.8
20260506043028 46 178 11.0 15.0 0.01 0.28 0.00 88 1008.6
20260506041556 47 190 0.0 11.0 0.01 0.28 0.00 88 1008.6
20260506040040 47 188 3.0 15.0 0.00 0.28 0.28 89 1008.7
20260506034539 47 201 0.0 9.0 0.00 0.28 0.28 89 1008.8
20260506033036 47 191 0.0 10.0 0.00 0.28 0.28 89 1008.7
20260506031535 47 203 1.0 12.0 0.01 0.28 0.28 89 1008.4
20260506030035 47 192 0.0 9.0 0.01 0.28 0.28 89 1008.1
20260506024537 47 201 0.0 9.0 0.01 0.28 0.28 89 1008.3
20260506023023 48 189 5.0 12.0 0.02 0.27 0.27 89 1007.9
20260506021520 48 192 0.0 14.0 0.05 0.27 0.27 89 1007.8
20260506020023 48 188 0.0 9.0 0.08 0.27 0.27 89 1007.6
20260506014519 48 186 8.0 12.0 0.09 0.27 0.27 89 1007.5
20260506013023 48 221 0.0 7.0 0.07 0.24 0.24 88 1007.7
20260506011512 49 225 0.0 0.0 0.05 0.22 0.22 88 1007.8
20260506010012 49 186 0.0 0.0 0.04 0.19 0.19 87 1007.6
20260506004517 49 240 0.0 6.0 0.05 0.18 0.18 87 1007.4
20260506003006 49 225 0.0 7.0 0.06 0.17 0.17 86 1007.1
20260506001503 50 228 0.0 8.0 0.07 0.17 0.17 85 1006.9
20260505234600 52 240 0.0 10.0 0.03 0.13 0.13 79 1006.2
20260505233056 54 269 3.0 13.0 0.01 0.11 0.11 71 1005.9